Wind_Speed
14 11 11 13 15 16 16 16 16 17 17 17 19 20 22 25 26 24 17 13 16 22 23 24 24 21 21 21 18 18 21 21 23 26 29 30 31 33 35 37 39 40 42 43 45 49 53 53 48 43 40 39 37 35 33 33 33 34 34 34 34 34 33 32 32 31 31 29 29 29 29 28 27 28 28 29 32 33 35 36 36 35 34 34 34 35
14 11 12 16 16 15 16 16 16 17 17 18 19 22 23 23 28 24 11 11 17 22 24 25 26 22 21 20 16 17 21 21 22 25 28 29 31 33 35 37 39 40 41 43 45 48 52 51 45 41 38 37 36 34 32 32 33 33 32 33 34 33 32 32 31 30 29 29 29 29 28 27 26 25 25 26 27 27 29 33 35 35 34 34 33 33
13 13 13 15 16 16 16 16 17 17 17 17 18 22 25 25 29 22 11 14 17 21 25 25 27 26 20 16 15 18 21 21 22 26 28 30 31 33 36 38 39 40 41 42 44 49 51 48 43 39 36 36 35 34 32 31 31 31 31 32 32 31 30 30 29 28 27 27 28 28 27 26 24 23 23 24 24 23 23 27 31 33 33 33 33 33
14 13 12 12 15 17 17 18 17 15 16 17 18 23 26 28 28 23 20 18 13 19 25 24 30 26 13 12 16 18 21 21 22 26 29 30 31 33 36 38 39 40 41 42 45 49 50 47 42 38 35 34 34 33 32 31 30 29 29 30 30 30 30 29 28 27 26 26 27 26 25 24 23 23 23 23 22 21 20 22 27 29 30 32 33 33
15 12 11 10 13 17 18 19 18 16 17 17 20 23 25 28 28 26 26 22 15 17 20 23 30 19 7 15 20 18 21 21 22 27 29 30 32 34 36 37 39 40 42 43 45 49 49 46 41 37 34 33 33 33 32 30 29 28 28 29 30 30 30 29 29 27 26 26 25 24 22 22 22 23 23 23 22 20 20 20 22 25 27 29 31 32
16 13 11 10 12 16 18 21 21 19 19 19 21 23 25 28 28 25 23 22 19 15 16 20 19 10 13 20 19 18 20 20 22 28 30 30 32 35 36 37 39 40 42 43 46 48 48 45 41 37 34 33 33 33 31 30 28 27 28 28 29 29 29 29 29 27 25 25 24 22 20 20 20 20 21 22 21 20 19 19 19 21 23 25 26 28
17 15 13 11 12 16 18 21 23 22 21 20 22 24 25 27 26 22 19 19 16 13 17 18 9 12 24 23 18 18 19 19 24 28 29 30 32 35 36 37 39 40 41 43 46 48 48 46 42 38 34 32 32 32 31 29 28 27 27 28 28 28 28 27 28 27 25 23 23 21 20 19 18 18 19 19 19 18 17 17 17 17 18 20 22 23
18 16 14 12 13 16 18 21 24 24 21 20 22 25 27 27 21 16 15 15 16 17 19 16 11 15 23 24 21 18 18 21 26 29 30 31 33 35 36 37 39 40 41 43 45 47 48 46 43 39 35 32 31 31 30 29 28 27 27 27 27 27 28 27 27 27 25 23 22 20 19 18 18 18 18 17 17 16 15 14 14 14 15 16 18 19
17 17 14 12 12 15 18 21 24 24 21 20 23 25 30 26 16 13 13 12 16 18 15 12 9 10 17 23 20 15 20 24 27 32 32 32 33 35 36 37 39 40 41 43 45 47 48 47 44 40 36 33 32 31 30 28 27 27 27 27 27 26 27 27 27 25 25 23 22 20 19 18 17 17 18 18 17 16 15 14 13 13 12 13 14 16
17 17 13 11 12 14 18 21 24 24 21 21 22 26 30 22 14 11 10 11 13 12 10 8 6 5 14 22 16 15 25 27 29 34 33 33 34 35 36 37 38 40 41 43 44 46 48 48 45 41 38 35 33 31 30 28 26 26 27 27 27 26 25 27 27 25 23 23 22 20 19 18 17 17 17 17 17 17 16 16 15 14 13 13 13 14
18 15 12 13 13 15 19 21 24 24 21 22 23 29 28 16 12 9 9 10 9 6 6 5 6 5 8 16 19 22 28 28 31 35 34 34 35 35 37 37 38 39 40 42 44 45 48 48 46 43 39 36 33 32 31 29 27 26 27 27 27 26 25 25 25 25 23 23 22 20 19 18 17 16 16 16 16 16 16 16 16 16 16 16 16 16
17 13 12 15 14 16 21 22 24 22 21 21 21 29 27 12 9 7 7 5 2 4 6 4 7 8 9 15 25 27 28 29 31 34 35 36 36 36 37 37 38 39 40 42 43 45 47 48 47 44 41 38 34 32 32 31 28 26 27 27 27 27 26 25 24 24 23 22 22 21 19 18 17 16 15 15 15 14 14 14 15 16 16 17 17 18
16 13 13 15 14 18 22 23 23 21 21 20 19 27 23 9 7 4 4 3 3 5 6 7 12 13 15 21 28 25 27 29 31 35 36 37 37 37 37 37 39 40 41 43 43 44 45 46 47 45 42 39 35 32 31 31 30 27 27 27 28 27 26 25 24 23 23 22 21 21 19 17 17 16 15 15 14 14 14 14 14 15 15 16 17 18
16 12 14 15 14 18 24 24 23 22 22 19 19 25 18 5 5 4 3 4 4 7 14 19 18 14 18 26 26 24 28 30 32 36 37 39 39 38 38 38 40 41 42 43 43 44 45 46 46 45 44 41 37 34 32 31 31 28 27 27 28 28 27 26 24 24 23 21 21 20 19 18 16 16 16 16 16 15 15 15 15 15 16 16 17 19
14 10 14 15 13 18 24 24 23 24 21 17 18 20 14 6 2 2 4 4 7 16 25 23 12 10 20 27 24 25 31 32 35 38 39 41 41 40 40 40 41 42 42 43 44 44 45 45 46 46 45 42 39 36 33 32 30 29 27 27 28 28 28 27 25 24 24 22 21 21 20 19 17 16 16 16 17 17 17 16 16 16 17 17 18 19
13 13 15 14 14 19 24 23 22 22 17 15 18 17 14 10 2 5 9 11 13 15 18 14 11 20 31 27 23 28 33 36 38 40 42 43 43 43 42 42 42 43 43 44 44 44 45 45 45 46 45 44 41 37 35 33 30 28 27 27 27 28 28 27 26 24 24 23 21 21 21 20 19 18 17 17 18 18 19 19 18 18 18 19 19 20
13 16 15 13 15 20 24 23 21 18 14 15 16 16 16 13 6 6 10 12 9 5 8 12 19 34 35 23 24 31 35 39 41 42 44 44 45 45 44 44 44 44 44 44 44 44 45 45 45 46 46 45 42 38 35 34 32 29 28 27 27 28 27 27 27 26 24 23 22 22 21 21 21 20 19 19 20 20 20 21 21 20 20 20 20 21
15 18 15 14 17 22 24 22 18 15 13 13 13 14 16 11 7 8 7 6 4 1 8 12 21 35 29 18 27 35 36 42 43 44 46 45 46 46 45 45 45 44 44 44 44 44 44 45 45 45 45 45 43 39 36 34 33 31 30 29 28 27 27 27 27 27 25 24 23 23 23 22 22 21 21 21 21 22 23 23 23 23 22 22 21 22
17 17 14 16 20 23 23 19 16 13 12 12 13 13 14 8 5 8 6 4 4 1 7 12 19 28 26 21 30 37 39 45 46 45 46 46 46 47 46 46 45 45 44 44 44 44 44 45 44 45 45 44 43 41 37 34 33 32 31 30 28 27 28 27 27 27 26 25 24 24 24 23 23 23 22 22 22 23 24 24 25 25 24 24 23 23
17 13 12 18 23 23 21 17 15 14 13 13 14 13 13 8 8 10 6 4 3 1 5 9 14 23 26 25 31 38 43 46 46 46 46 45 47 48 47 47 45 45 45 44 44 44 45 45 44 45 45 44 43 42 39 35 32 32 32 31 30 28 28 28 28 28 27 26 25 25 26 25 24 24 24 24 24 24 24 25 26 26 26 25 24 24
17 13 14 20 24 22 20 16 13 13 12 13 14 13 12 10 10 12 10 9 6 3 2 2 9 25 30 26 31 42 45 45 46 46 46 46 47 48 48 47 46 45 45 45 44 45 45 44 44 45 44 44 44 42 41 38 34 32 32 32 32 30 29 28 28 28 27 27 26 26 27 27 26 25 25 26 26 25 25 25 26 26 26 26 26 25
16 16 19 23 24 21 17 13 10 10 12 15 17 15 14 13 11 8 6 9 8 8 6 1 9 29 34 30 38 46 44 44 46 45 46 46 47 47 48 47 46 46 46 45 45 45 45 44 44 44 44 44 44 43 42 40 37 34 32 32 32 31 30 29 29 29 28 27 27 27 28 28 28 27 27 27 27 26 26 26 26 26 26 26 26 26
17 17 20 24 24 18 12 9 9 12 17 20 21 20 18 16 13 7 5 9 9 11 13 5 8 27 38 36 42 45 42 45 45 44 47 47 46 47 47 47 46 46 46 45 45 45 45 44 44 44 44 44 44 43 42 41 39 37 34 32 32 32 31 30 29 29 29 27 27 28 28 28 28 28 28 28 28 28 27 26 26 25 25 25 25 26
16 15 19 26 24 16 10 9 10 14 19 23 24 24 22 19 17 13 13 15 13 15 14 6 7 27 44 43 42 43 43 45 44 45 48 47 48 48 46 46 46 46 46 45 45 46 45 45 44 44 44 44 43 43 42 42 40 38 36 33 32 32 31 31 30 29 29 28 28 28 29 29 28 28 28 28 29 29 28 27 26 25 24 24 24 25
14 14 18 22 19 14 12 10 12 17 22 25 27 26 24 22 19 17 17 15 12 16 14 9 10 32 48 46 42 42 43 45 45 45 47 48 49 48 46 46 46 46 46 45 45 46 45 45 44 44 44 44 44 43 42 42 40 38 37 35 33 32 31 31 30 29 29 28 28 29 29 29 29 28 27 28 29 29 29 27 26 25 24 23 23 23
14 15 16 13 7 5 9 12 17 24 26 27 27 26 26 25 22 19 16 13 12 16 16 14 20 42 50 43 40 43 44 47 48 46 47 48 48 47 46 46 46 46 46 46 47 47 46 45 44 44 44 44 44 43 42 41 40 39 38 36 34 33 32 31 30 29 29 28 29 29 29 29 29 28 27 28 28 28 28 27 26 25 23 23 23 22
15 17 16 14 13 12 16 19 21 24 26 27 27 25 25 25 25 22 18 18 18 17 22 29 36 46 50 44 42 46 47 47 49 48 48 48 47 47 46 46 46 46 46 47 48 48 47 47 45 44 44 44 44 43 43 42 40 39 38 37 35 33 32 31 30 29 28 28 28 29 29 29 28 28 27 27 28 28 28 27 26 24 23 22 22 21
17 19 17 17 19 20 22 24 21 21 25 28 28 26 24 24 27 26 22 24 24 17 24 39 42 44 49 46 43 50 51 49 51 51 49 49 48 47 47 47 48 47 47 48 48 49 49 48 46 45 45 44 44 43 42 42 40 39 38 37 36 34 33 32 30 29 28 28 28 28 28 28 28 28 27 27 28 28 27 26 25 24 23 22 21 20
19 20 19 19 22 23 23 22 20 21 26 29 31 28 23 23 27 28 25 28 28 25 32 43 43 45 48 44 44 52 53 51 54 53 51 52 50 48 48 49 49 48 48 49 49 50 50 49 48 47 46 45 44 43 42 41 40 39 37 37 36 35 34 32 31 30 29 28 28 28 28 28 28 28 28 27 27 27 27 25 24 23 22 21 20 19
18 21 21 21 25 26 22 20 21 23 28 32 30 23 18 20 24 27 26 27 29 33 40 44 43 46 44 43 48 53 51 52 56 55 54 54 51 50 51 51 50 50 49 50 50 50 50 51 50 49 47 45 44 43 42 40 39 38 36 36 35 34 34 32 31 30 30 29 28 28 27 27 28 28 27 27 27 27 27 25 23 23 22 21 20 20
18 21 22 23 28 28 22 22 23 26 32 32 23 15 14 18 22 25 26 28 30 35 40 41 42 46 46 47 51 52 51 54 57 57 57 56 53 52 52 53 52 51 50 51 51 51 51 51 51 50 48 46 44 43 42 41 40 38 36 35 34 33 33 32 31 30 30 29 28 27 27 26 27 27 27 27 27 27 26 25 24 23 22 21 20 20
19 21 23 23 26 29 26 24 26 30 32 27 19 17 17 17 21 25 27 30 32 36 39 38 40 46 52 52 52 53 53 54 56 59 59 57 55 53 54 54 53 52 52 52 51 51 51 51 52 51 50 47 46 44 42 41 40 38 37 35 33 32 31 31 30 30 29 29 27 27 26 26 26 26 27 27 27 27 26 26 25 24 23 22 21 21
20 21 23 21 22 29 28 25 31 33 23 16 20 22 18 17 20 26 32 34 35 36 35 35 40 50 55 55 55 56 55 54 56 60 60 58 56 54 55 56 54 53 53 53 52 52 52 52 52 52 51 49 47 45 43 42 40 39 37 35 33 32 30 29 29 29 29 28 27 26 26 25 25 25 26 27 27 26 26 26 26 25 24 23 23 22
21 21 24 20 19 27 30 30 33 23 8 14 24 20 16 20 23 28 34 37 39 37 32 33 45 55 56 56 58 59 59 58 58 60 60 57 54 55 56 56 55 55 54 53 54 53 53 53 52 51 51 50 48 46 44 42 41 39 38 36 34 32 30 29 28 28 28 28 27 26 25 25 25 24 25 26 26 26 26 25 25 25 25 24 24 24
22 22 23 21 21 27 31 28 18 8 12 23 24 18 21 28 29 32 36 39 40 34 29 36 51 57 57 58 60 60 61 60 60 62 61 56 53 54 55 54 54 55 55 55 55 54 54 54 52 52 51 50 49 48 45 43 41 40 39 37 35 33 31 30 28 27 27 27 26 25 25 24 24 23 24 25 25 25 25 25 25 25 25 24 24 24
21 21 21 22 22 22 22 15 7 16 32 29 18 21 29 32 35 36 39 42 37 26 30 45 55 58 59 61 62 62 63 64 64 65 62 56 54 53 53 53 53 53 54 55 55 56 56 55 54 53 51 50 50 48 46 43 41 40 39 38 36 33 31 30 29 27 26 26 26 25 24 24 24 23 23 23 24 25 25 24 24 24 24 23 23 23
19 19 20 19 17 16 17 18 21 30 33 21 17 27 31 33 39 40 42 44 33 25 40 56 59 62 64 64 65 65 65 67 69 67 63 59 57 55 55 55 54 54 54 54 55 56 56 56 55 54 52 51 50 48 47 44 41 40 39 38 37 34 32 31 29 28 26 26 25 24 24 24 23 23 23 23 22 23 24 24 23 23 23 22 21 21
19 20 20 17 16 17 18 19 19 17 14 15 23 31 33 37 44 43 44 41 32 36 54 61 59 65 67 64 66 66 65 68 71 69 64 62 61 59 58 58 57 56 55 54 54 55 55 56 56 54 53 53 50 48 47 43 41 39 38 38 38 35 33 31 30 28 27 26 25 25 24 24 24 23 23 23 22 22 23 23 23 23 22 21 20 20
20 21 20 19 20 21 18 14 9 8 12 23 29 33 38 43 48 45 39 36 40 52 60 59 59 63 62 62 63 62 63 66 70 69 65 63 63 62 59 59 57 56 56 54 54 54 54 56 56 54 54 53 52 50 47 43 40 38 37 38 37 36 34 32 31 29 28 26 25 25 24 24 24 23 23 23 22 21 22 23 23 22 21 21 20 19
22 21 21 21 23 24 21 18 16 18 23 27 30 37 43 45 46 37 26 34 54 62 57 56 60 61 60 62 61 60 61 64 67 68 65 62 63 62 60 60 58 57 56 54 53 53 53 54 55 54 53 53 52 52 49 45 40 37 36 36 36 35 34 33 31 30 28 26 25 24 24 24 24 23 23 23 23 22 21 21 22 22 21 21 20 19
23 22 21 21 23 23 21 21 24 27 25 24 32 41 43 42 40 32 28 43 61 63 58 59 61 61 63 64 62 62 63 62 64 65 63 61 61 60 59 59 58 58 57 55 54 53 53 53 53 54 53 52 52 52 50 47 42 36 34 35 34 34 33 32 31 30 28 27 26 24 24 24 23 23 23 22 23 23 21 20 20 21 21 21 21 20
20 19 19 19 20 19 18 21 24 23 20 26 37 41 39 39 39 39 46 55 59 60 63 64 63 64 66 65 64 65 64 64 64 65 64 64 63 63 62 61 61 60 59 58 56 55 53 52 52 52 52 52 52 51 49 48 43 37 34 33 33 33 32 31 30 29 27 27 26 25 24 24 23 23 22 22 22 22 22 20 19 20 21 21 21 20
17 16 16 18 18 17 16 14 15 18 24 34 40 39 40 43 45 49 58 62 61 62 65 65 66 67 66 66 67 66 66 67 67 66 67 68 67 67 68 67 66 65 62 60 59 56 54 53 51 49 50 51 51 50 49 48 44 38 34 33 32 32 31 30 29 28 27 26 26 25 24 23 23 23 22 21 21 21 22 21 18 18 19 20 21 21
16 16 18 19 18 17 17 15 15 21 30 36 38 40 44 48 51 55 59 63 65 65 64 65 67 65 63 64 65 64 65 66 65 65 66 65 65 65 65 64 64 63 61 61 59 57 54 52 50 48 48 49 49 48 48 48 45 40 35 33 33 32 30 29 28 27 26 25 25 25 24 23 23 22 22 21 21 20 21 21 19 17 17 19 20 21
16 17 20 20 18 19 22 23 23 26 30 33 38 45 50 52 54 56 58 61 64 62 61 62 62 60 60 60 59 61 62 61 61 62 61 60 60 59 58 59 59 58 58 58 57 56 55 53 51 48 47 47 47 47 47 47 45 41 36 34 34 32 29 28 27 26 25 25 24 24 24 23 22 22 22 21 20 19 19 20 20 17 15 16 18 20
16 16 17 19 20 21 22 22 25 30 31 34 39 46 52 56 57 58 60 61 60 57 55 55 55 55 55 54 56 59 59 58 60 60 59 59 60 58 58 58 58 57 58 57 56 56 55 54 53 50 47 45 44 44 45 46 44 41 37 35 34 32 30 28 26 25 24 24 23 23 23 22 22 22 21 21 21 19 18 18 19 18 15 13 14 17
14 14 16 18 21 24 25 25 30 36 36 38 45 51 55 59 60 58 57 56 54 53 52 50 50 52 53 54 56 59 59 60 61 62 63 63 62 61 61 60 59 59 59 58 57 56 55 54 53 51 48 45 41 41 43 43 42 40 38 36 34 32 30 28 26 25 24 23 22 22 22 22 22 22 21 21 20 19 18 17 18 18 16 13 12 14
14 15 18 20 22 25 28 31 38 42 40 42 50 56 59 62 63 59 55 51 50 51 52 51 52 54 55 57 58 60 62 63 63 65 67 67 66 65 64 62 61 60 57 57 57 57 56 54 52 51 49 45 40 38 39 39 40 39 38 36 34 32 31 29 26 25 23 22 22 22 21 21 21 21 21 21 20 20 19 17 16 16 15 14 13 13
14 17 22 27 29 30 33 39 46 50 49 50 56 60 60 61 61 58 55 51 50 52 55 56 57 56 57 59 61 63 65 66 66 68 70 70 69 68 66 65 63 59 56 54 54 55 56 55 52 51 50 45 39 38 36 35 36 38 37 35 34 32 31 29 27 25 22 21 21 21 20 20 20 21 21 21 21 20 19 18 17 15 14 14 14 13
17 21 27 33 37 38 41 46 51 55 58 60 62 64 63 59 58 56 55 53 54 56 57 59 59 58 59 61 62 65 67 68 68 69 70 69 68 66 65 64 61 58 55 53 52 52 54 54 52 52 50 45 41 40 38 35 34 36 36 35 33 32 31 29 28 25 22 21 20 19 19 19 19 20 21 21 21 20 19 18 17 16 14 13 13 12
17 23 30 36 41 42 44 48 51 56 60 63 65 65 62 58 56 56 54 54 56 57 57 59 60 61 62 62 63 66 67 68 67 66 66 65 63 62 61 60 58 57 55 52 51 52 53 53 53 52 50 46 43 42 40 36 33 33 35 34 33 32 31 29 28 25 23 20 19 19 19 18 18 19 20 20 21 21 19 18 17 16 15 14 12 12
Wind_Direction
356 345 342 360 3 1 4 3 2 1 357 353 348 346 341 332 332 335 318 294 305 311 316 316 313 314 312 311 318 324 328 331 332 333 333 332 330 329 330 331 332 333 335 335 335 335 332 331 333 331 328 327 325 324 325 325 326 327 328 329 328 325 320 318 315 313 314 315 314 314 312 307 301 298 299 298 294 292 286 284 285 284 281 277 273 271
349 338 355 10 5 1 3 1 360 359 355 352 351 347 343 333 331 334 312 291 309 306 312 315 309 312 312 310 320 326 328 331 329 330 331 330 329 329 330 332 334 335 336 336 336 334 330 332 334 330 327 325 323 323 324 325 327 329 332 333 332 329 324 320 318 317 317 317 317 317 315 311 307 303 302 302 300 296 287 282 283 284 283 281 278 275
347 347 0 3 360 1 1 359 359 359 353 349 351 348 344 338 333 334 317 305 306 300 309 312 307 314 315 312 328 332 330 331 327 329 330 328 329 329 332 334 335 336 337 336 336 332 330 334 334 329 326 323 321 322 323 326 328 331 334 336 336 333 330 327 324 322 320 320 320 319 317 315 314 311 307 305 303 300 289 280 279 281 282 281 280 278
353 352 352 348 355 359 357 358 355 353 352 346 349 348 345 342 334 326 320 313 299 297 307 309 310 316 318 323 338 337 330 330 327 328 330 329 329 330 333 335 335 336 337 337 335 331 331 335 334 329 325 322 320 320 322 326 328 330 334 337 339 340 337 334 331 328 326 326 325 322 320 320 320 317 312 308 305 301 291 281 278 280 281 280 280 280
358 354 341 334 347 354 355 356 349 345 350 347 347 347 344 341 331 319 316 314 307 305 305 311 316 320 332 337 342 336 328 331 328 328 332 330 329 332 333 335 336 337 338 337 334 330 332 337 336 330 325 322 320 319 321 325 326 329 333 337 341 343 341 339 335 333 333 332 329 325 325 326 325 322 318 315 312 306 298 291 285 284 283 282 281 282
360 355 339 329 335 347 351 350 348 345 346 349 349 345 341 336 327 318 312 308 312 316 312 320 327 321 318 330 340 332 328 334 330 330 335 332 331 333 334 335 337 338 338 336 332 330 333 338 337 332 326 322 319 319 321 323 324 327 331 336 341 342 343 342 338 337 340 338 333 331 331 332 330 327 324 321 319 314 309 304 298 293 290 288 286 285
357 353 342 332 329 341 344 344 349 347 343 348 347 343 339 333 324 314 304 302 308 313 312 314 306 291 306 325 340 328 328 335 334 336 336 334 333 335 336 337 337 338 337 333 331 331 334 338 339 334 328 322 318 319 319 319 321 324 328 334 337 339 342 342 339 341 345 343 338 337 336 337 338 336 332 330 327 323 318 314 310 304 299 296 293 291
354 351 344 337 331 335 336 338 347 346 341 342 342 342 338 332 321 303 295 297 297 302 307 298 273 274 295 322 335 323 327 336 338 341 339 337 337 336 338 339 338 339 335 332 331 332 334 338 340 336 330 324 319 317 316 316 318 320 324 330 333 336 338 339 340 343 347 345 343 342 342 344 345 344 342 341 339 336 332 327 322 318 311 306 303 300
353 350 347 342 333 331 333 338 344 343 339 337 340 344 339 332 319 297 290 295 295 298 304 290 277 270 284 313 328 320 326 335 339 343 343 341 340 339 340 339 339 338 334 332 333 333 335 338 340 338 332 327 320 316 314 314 315 316 319 324 329 333 334 335 338 343 345 344 344 344 344 347 350 350 348 347 348 347 347 344 340 336 329 321 315 311
354 351 347 341 336 334 336 339 341 341 337 335 337 343 341 330 315 299 280 296 297 286 292 279 270 286 294 312 330 329 329 333 337 342 344 343 342 341 341 340 339 336 332 333 335 335 335 337 339 339 334 328 321 316 313 312 311 311 315 318 323 328 330 332 335 339 341 340 341 343 344 346 349 351 350 349 350 350 350 349 347 345 341 337 330 325
354 353 349 345 342 341 340 339 340 339 337 336 337 341 345 334 314 294 259 298 304 275 297 257 250 293 301 319 333 332 331 332 334 339 343 343 344 343 342 340 337 333 333 334 336 336 335 336 338 339 335 329 323 316 312 311 309 308 310 312 316 323 326 328 331 335 337 337 337 339 341 343 345 348 348 348 349 349 349 347 345 343 341 338 336 331
354 354 352 351 346 344 343 340 340 338 338 340 336 342 350 345 321 290 248 300 294 274 315 261 277 291 261 311 333 332 332 334 334 338 341 343 344 343 342 339 335 334 334 336 336 336 334 335 337 338 335 331 324 317 311 309 309 307 306 308 311 317 321 324 326 329 333 333 332 334 337 339 340 342 344 342 342 343 343 341 339 337 335 333 331 329
353 355 354 352 347 347 344 341 341 340 340 339 336 350 360 355 340 330 250 296 228 255 312 293 304 294 269 310 334 336 336 337 336 339 341 343 344 342 341 338 335 335 336 336 336 335 334 334 336 336 335 332 327 320 312 308 308 306 304 305 308 311 315 319 321 323 326 328 327 328 330 332 333 335 336 335 334 334 335 334 332 330 329 328 326 326
354 357 353 349 346 349 345 342 343 341 341 342 346 0 13 19 358 346 294 313 264 280 303 298 301 292 295 322 336 339 342 342 340 342 342 342 342 341 340 338 337 337 336 336 336 334 333 333 335 335 333 332 329 324 316 310 307 306 304 304 305 306 309 313 316 317 320 322 322 321 323 325 326 328 329 328 326 327 326 326 325 324 324 324 323 323
349 348 348 345 341 347 347 344 343 341 342 344 348 359 13 26 20 272 289 300 286 302 305 298 283 278 307 326 337 342 347 346 344 344 342 342 341 340 340 339 338 338 336 336 335 333 333 333 334 334 333 331 329 326 320 313 309 306 304 303 302 302 304 307 310 311 313 315 316 315 316 317 319 321 322 321 320 319 318 318 319 319 319 319 320 322
341 338 343 343 339 344 346 344 343 344 343 342 342 349 358 0 316 258 279 276 282 304 307 294 276 298 314 326 337 345 348 348 347 344 342 341 341 340 341 339 338 337 336 335 333 332 332 333 334 333 332 330 329 326 321 317 313 308 304 302 300 300 302 303 304 305 307 309 309 309 311 312 313 315 315 314 312 312 312 312 312 312 313 314 315 318
336 336 342 345 340 342 344 343 342 344 341 337 337 341 344 344 332 308 291 279 285 294 293 289 296 313 323 333 340 345 346 347 346 343 341 341 339 340 341 339 337 336 335 333 332 331 331 333 333 332 331 329 328 327 323 318 316 313 307 302 300 299 300 300 300 300 300 302 303 304 306 307 309 310 311 309 307 306 307 306 307 307 307 308 310 313
334 334 341 347 341 341 342 340 340 341 340 334 330 335 339 338 338 338 317 300 328 274 276 286 298 312 318 327 339 342 343 344 344 342 340 339 338 339 339 339 337 335 333 331 330 331 331 332 331 330 330 328 327 327 325 320 317 315 310 305 301 298 298 298 298 297 296 297 298 299 300 302 304 306 306 305 303 303 303 303 304 304 303 304 305 307
336 332 338 344 341 340 339 338 340 340 339 335 326 328 336 329 307 327 330 313 332 308 287 297 304 310 311 318 336 342 341 341 342 340 338 337 336 337 337 337 336 333 331 330 330 330 330 330 330 329 328 327 327 327 326 323 318 314 311 308 303 299 297 297 296 296 294 294 294 294 295 296 299 302 302 302 301 300 301 302 302 302 302 302 303 303
337 327 326 338 340 339 336 336 337 335 334 333 327 325 328 318 291 305 300 251 264 268 296 313 311 317 327 330 334 341 341 340 340 338 336 335 334 335 335 335 334 331 331 330 329 329 329 329 328 327 326 327 328 328 327 326 321 315 312 310 308 303 299 297 296 295 293 293 293 291 291 292 294 298 299 299 299 298 299 300 300 300 300 301 301 301
334 320 314 330 338 337 333 332 332 332 333 329 327 323 318 312 300 303 289 256 245 223 256 6 294 309 336 347 337 341 342 339 338 336 334 334 333 334 334 334 333 331 331 330 329 328 328 327 326 325 325 326 328 328 327 327 324 319 314 312 311 308 303 299 296 294 293 292 292 291 289 289 290 293 295 296 297 297 297 298 298 299 300 301 301 300
329 318 312 324 337 337 331 332 332 334 337 332 329 322 314 311 302 303 293 262 239 227 248 159 274 307 337 351 340 342 343 338 338 336 335 336 334 334 334 334 333 332 331 330 328 327 327 326 325 324 324 326 327 328 328 328 326 323 319 314 311 310 307 302 296 293 292 291 291 290 289 288 289 290 291 293 294 295 296 296 296 298 300 301 300 299
325 318 314 323 336 340 337 341 341 339 337 333 331 323 315 309 295 281 263 271 259 245 257 226 249 308 336 344 338 343 342 337 339 337 336 338 337 337 336 335 334 331 331 330 328 327 326 325 324 323 324 325 326 328 328 328 327 325 322 318 313 310 308 305 301 295 292 291 291 290 289 289 288 288 289 290 291 292 293 294 295 296 297 299 298 298
325 320 318 325 334 341 341 340 336 332 330 328 328 322 312 306 301 292 276 278 275 256 255 200 223 307 332 338 337 343 340 338 340 337 336 338 338 339 337 335 334 332 332 331 328 328 327 326 325 323 323 325 325 327 327 327 327 325 323 321 315 311 307 306 305 299 294 292 290 289 288 288 287 288 289 289 289 290 290 291 292 293 294 295 295 296
321 317 319 326 336 346 343 338 332 326 322 321 324 322 314 308 303 297 287 278 272 266 258 188 229 303 328 337 338 341 340 339 340 337 337 337 338 339 337 333 333 333 333 332 329 329 328 326 326 323 323 324 324 325 326 326 326 325 323 322 317 313 308 306 306 304 299 293 289 287 286 285 286 287 289 289 289 289 289 289 289 290 291 292 292 294
308 309 315 315 316 326 315 314 322 320 316 316 320 320 316 309 300 298 290 265 264 275 259 232 268 305 327 340 341 341 340 339 339 338 337 337 337 338 335 332 333 334 334 333 331 330 329 328 326 324 323 323 323 323 324 324 325 325 323 322 319 316 311 307 305 304 301 296 289 286 284 284 285 285 287 288 289 289 288 288 287 287 289 290 291 292
301 305 312 303 292 296 303 312 319 315 309 312 317 316 312 306 300 295 279 264 276 276 270 285 298 306 322 340 343 339 340 339 337 337 337 337 338 337 333 332 334 336 336 335 333 332 330 329 328 325 324 323 322 321 321 322 324 324 323 322 320 318 314 309 306 303 302 299 294 288 284 284 285 285 285 285 287 288 288 287 286 285 286 288 290 291
301 304 309 306 304 309 315 321 320 309 306 311 315 315 312 306 297 289 278 285 293 272 279 310 316 306 315 336 341 337 338 337 335 336 336 337 338 336 333 332 335 336 336 335 335 334 332 331 330 327 325 323 321 320 319 320 321 322 322 321 321 320 317 313 309 305 303 302 300 295 289 285 284 284 284 283 284 286 287 286 284 283 284 287 289 292
305 304 308 310 310 313 318 321 316 307 309 314 317 317 314 302 291 287 290 297 292 275 290 315 318 307 317 336 338 334 336 334 332 334 334 335 338 336 333 333 335 336 335 334 334 334 334 333 331 329 326 324 321 319 318 318 319 320 321 321 321 320 318 315 312 308 305 304 305 302 296 289 285 283 283 282 281 283 284 285 282 281 282 285 289 292
304 303 308 309 310 314 318 319 315 313 317 320 322 320 306 293 287 288 299 302 290 288 305 316 311 310 326 339 334 333 335 332 331 332 331 334 337 335 332 332 334 334 333 333 333 333 334 333 332 331 328 325 322 320 318 316 317 318 319 320 320 319 318 317 314 311 308 306 305 305 302 295 287 283 282 281 280 280 282 282 280 278 279 282 288 292
301 301 305 307 308 313 320 320 317 320 320 319 323 325 306 302 302 298 305 309 299 300 314 315 306 313 332 339 334 334 336 332 331 331 331 333 335 333 331 331 332 332 332 331 331 331 332 332 332 331 330 327 325 322 319 316 316 316 317 318 319 318 318 317 316 313 309 306 305 305 305 300 292 285 282 281 280 279 279 279 278 276 276 279 285 290
299 298 300 305 304 307 318 321 318 320 317 313 326 337 326 319 316 310 314 317 312 313 316 311 308 321 336 339 335 336 336 334 332 331 331 334 335 333 330 330 331 330 329 329 329 329 330 330 330 331 330 329 327 325 321 318 316 315 316 317 318 318 318 318 317 314 310 306 304 303 305 305 298 289 283 281 280 278 277 277 276 275 274 276 280 285
298 294 298 302 297 303 314 318 317 320 317 318 335 340 332 329 324 320 323 325 324 322 316 313 321 331 336 335 333 333 333 332 330 329 329 333 335 332 330 330 330 329 328 328 327 327 327 327 328 329 330 330 328 326 324 320 317 315 314 315 316 317 317 318 317 314 311 308 306 304 305 307 304 296 286 281 279 278 276 275 275 275 274 274 276 280
297 294 296 295 290 300 310 316 320 320 311 326 335 337 335 335 330 326 329 333 332 326 319 322 330 332 333 332 330 329 328 327 325 323 324 329 332 331 330 330 330 328 327 327 325 325 324 324 326 326 328 328 328 327 326 323 318 315 314 314 315 316 316 317 316 315 313 311 309 307 305 305 306 301 292 284 280 278 277 275 274 274 274 274 275 277
296 293 292 290 289 297 310 322 330 316 307 324 336 345 343 339 334 329 329 335 336 329 324 328 331 331 332 331 329 327 325 323 321 319 321 325 327 327 327 329 329 328 327 327 325 324 323 322 323 324 325 326 327 327 327 325 321 316 314 313 314 315 316 316 316 316 315 313 311 310 306 303 304 304 298 290 283 280 278 277 276 275 275 275 275 276
296 292 291 292 293 297 309 321 311 301 314 326 346 352 345 340 338 330 325 333 340 336 330 331 331 331 331 329 328 327 325 322 319 318 322 325 325 324 324 326 327 327 326 326 325 324 323 322 321 322 322 323 324 325 325 325 323 318 315 313 313 314 315 315 315 316 315 314 313 312 310 306 303 303 302 297 289 283 280 278 277 277 277 277 277 277
299 295 294 294 294 295 296 296 296 305 317 331 346 344 340 338 337 331 323 330 343 343 335 333 330 329 328 327 326 326 325 322 318 319 325 327 324 322 322 322 324 324 324 325 324 324 323 322 321 321 320 320 321 322 323 324 323 320 316 313 312 313 314 314 314 315 314 315 314 314 314 311 306 303 302 301 295 287 281 279 278 278 279 279 280 280
303 300 298 291 289 291 291 298 306 307 315 330 332 335 337 336 337 333 324 327 340 340 334 331 329 328 328 327 326 326 324 321 318 321 327 326 323 323 321 320 322 322 322 322 322 323 322 321 321 321 319 319 318 319 320 321 322 321 317 314 312 312 313 313 313 313 314 315 316 317 317 315 310 304 301 301 300 292 284 280 278 277 278 280 281 281
308 305 301 292 287 287 285 290 289 270 301 324 330 336 338 336 336 334 325 324 334 336 334 332 331 331 331 330 328 327 325 321 320 325 328 325 322 322 321 320 320 319 319 319 320 320 319 319 319 319 319 318 317 316 317 318 319 320 317 314 312 311 311 312 312 313 314 315 317 318 318 317 313 308 303 301 301 297 289 282 278 276 277 278 280 280
315 310 304 298 293 290 283 274 273 286 308 327 335 337 337 335 336 337 326 323 332 336 336 335 333 333 333 332 330 329 326 323 322 325 328 325 322 321 320 319 318 316 316 316 316 317 317 316 317 316 317 317 316 315 316 315 316 317 315 313 311 310 310 310 311 312 312 314 316 317 317 317 315 311 307 301 300 300 294 285 278 275 275 276 277 278
319 313 308 304 301 298 285 272 281 299 317 334 336 334 336 336 336 332 321 324 332 335 335 334 332 332 332 330 328 327 326 324 323 325 327 326 324 322 321 320 318 316 315 313 313 313 313 314 314 314 314 315 314 315 315 314 314 314 312 311 309 308 307 308 309 310 311 313 315 315 316 317 316 314 310 305 301 300 297 291 280 273 273 274 275 276
319 312 308 309 308 304 291 282 291 307 327 335 333 335 340 337 331 326 326 329 333 333 332 331 330 330 328 326 324 323 321 321 322 322 323 323 323 322 321 320 319 318 317 315 313 312 311 310 310 312 312 311 312 314 314 312 312 311 309 308 306 305 305 306 307 309 310 311 312 313 315 316 316 315 313 308 303 299 298 296 285 273 270 271 273 274
320 312 309 314 314 309 300 295 304 317 328 333 335 338 341 336 331 331 332 332 333 332 331 330 328 327 324 322 321 320 319 319 320 320 320 320 319 319 319 319 318 318 317 316 314 312 310 308 308 310 310 308 310 313 313 311 311 309 307 305 303 301 302 303 305 307 308 308 310 312 314 315 316 317 315 311 305 299 299 299 291 278 269 268 270 272
325 320 314 314 315 311 302 299 307 315 324 334 339 338 338 337 337 336 333 331 332 332 330 327 326 325 325 324 323 322 322 323 322 322 321 320 320 320 320 320 320 320 319 318 316 314 312 309 307 308 307 307 310 312 311 310 310 309 306 302 299 300 300 300 302 304 305 306 308 309 312 314 315 316 316 313 308 302 300 299 296 287 273 267 267 269
326 323 316 311 312 308 301 305 317 322 326 334 338 337 336 337 337 336 333 331 332 331 328 327 326 327 329 329 328 327 328 328 328 327 327 326 327 327 326 325 324 324 323 322 321 319 317 314 310 308 306 308 309 310 310 310 309 309 306 299 298 299 297 297 299 301 302 304 305 307 310 312 314 315 316 315 311 306 302 299 297 295 284 272 267 266
323 323 319 315 315 313 310 318 330 328 325 329 334 335 336 336 336 335 334 332 331 330 329 329 330 331 333 333 332 331 332 332 331 331 331 331 332 332 331 329 328 327 326 325 324 323 321 320 317 312 308 307 308 309 310 309 309 308 304 298 297 297 295 294 296 297 299 301 303 305 308 311 312 314 315 315 312 309 305 300 297 297 296 287 276 271
317 317 317 318 320 320 321 328 334 330 326 330 333 333 333 335 335 335 334 333 332 332 332 333 334 334 335 335 334 333 332 333 333 332 332 333 334 334 333 331 330 330 329 328 326 325 323 322 322 318 312 308 307 308 308 308 308 307 302 298 297 295 293 293 293 294 296 299 300 303 306 309 311 312 313 314 313 311 308 303 298 297 301 301 295 287
323 323 327 328 324 322 324 330 332 330 328 333 335 334 333 334 334 335 336 336 334 334 334 335 336 337 336 336 334 332 331 332 334 333 332 333 334 334 334 333 333 333 332 330 329 327 325 323 322 320 316 311 306 304 305 307 306 303 300 299 297 293 291 291 290 291 294 295 298 301 304 306 309 310 312 313 313 312 310 305 298 296 299 302 302 299
324 328 335 334 328 326 331 334 333 329 329 334 338 338 338 337 335 335 336 335 335 335 334 333 333 333 333 334 334 333 331 331 332 332 331 332 333 334 334 334 334 333 333 331 329 328 327 324 322 320 318 314 306 300 300 301 300 299 299 299 296 292 291 290 288 288 290 292 295 298 300 304 307 308 310 312 312 312 311 308 302 298 297 300 303 303
323 330 338 337 334 334 337 339 338 335 332 334 337 337 337 337 334 333 334 334 333 333 331 329 328 327 328 330 333 333 331 330 329 329 329 329 332 334 333 333 333 333 332 330 328 327 327 326 323 321 319 315 308 300 297 295 295 296 298 299 296 292 290 288 287 286 286 288 292 294 297 301 304 306 308 310 310 310 310 309 306 301 297 299 303 305
326 334 340 340 337 335 335 336 336 334 332 332 334 334 334 334 332 331 332 331 329 328 328 328 328 328 328 328 330 331 330 329 329 330 330 331 333 334 334 333 333 333 332 330 328 327 326 326 325 323 320 316 309 304 300 295 293 294 296 297 297 293 289 287 286 284 283 285 287 289 293 297 301 304 306 307 308 308 308 308 307 303 299 298 300 305
Height
3166 3165 3164 3162 3161 3159 3158 3157 3156 3154 3153 3151 3148 3146 3144 3141 3138 3137 3135 3133 3131 3127 3125 3124 3122 3121 3119 3117 3115 3113 3111 3109 3108 3106 3103 3101 3099 3096 3094 3091 3087 3084 3079 3075 3071 3066 3062 3059 3054 3049 3045 3042 3039 3036 3033 3029 3026 3023 3020 3017 3013 3009 3005 3002 2999 2995 2993 2990 2988 2985 2983 2981 2978 2976 2975 2972 2970 2968 2967 2966 2965 2965 2965 2965 2965 2965
3166 3165 3163 3161 3160 3159 3158 3157 3155 3153 3152 3150 3148 3145 3143 3140 3136 3135 3134 3132 3130 3126 3123 3122 3119 3118 3117 3114 3112 3110 3108 3107 3106 3104 3102 3099 3097 3094 3091 3088 3084 3081 3077 3073 3068 3064 3060 3056 3052 3047 3044 3040 3037 3033 3030 3027 3024 3021 3017 3014 3010 3006 3002 2999 2995 2992 2990 2987 2984 2981 2979 2976 2974 2973 2971 2969 2967 2965 2964 2962 2960 2960 2960 2960 2960 2960
3165 3163 3162 3161 3160 3159 3157 3156 3154 3152 3151 3149 3147 3144 3141 3139 3135 3133 3132 3131 3129 3124 3121 3120 3116 3114 3113 3111 3109 3108 3106 3105 3104 3102 3100 3097 3094 3092 3088 3085 3081 3078 3074 3070 3066 3062 3058 3054 3050 3046 3042 3038 3034 3031 3027 3024 3021 3018 3015 3012 3008 3004 3000 2996 2993 2989 2986 2984 2980 2977 2975 2972 2970 2969 2967 2965 2964 2962 2961 2959 2957 2956 2955 2955 2955 2955
3164 3163 3162 3161 3160 3158 3157 3155 3153 3152 3150 3148 3146 3143 3140 3137 3133 3131 3129 3129 3128 3124 3120 3117 3113 3110 3109 3108 3107 3106 3104 3103 3102 3100 3098 3095 3092 3089 3085 3082 3079 3075 3071 3067 3064 3060 3056 3051 3047 3044 3040 3036 3032 3028 3024 3021 3018 3015 3012 3009 3006 3001 2997 2994 2990 2987 2984 2980 2977 2974 2972 2969 2967 2965 2964 2962 2960 2959 2957 2955 2954 2952 2952 2951 2951 2950
3164 3163 3162 3161 3159 3158 3156 3154 3153 3151 3149 3147 3144 3142 3139 3136 3133 3129 3126 3125 3125 3123 3119 3116 3109 3105 3105 3105 3104 3104 3102 3101 3100 3098 3095 3092 3089 3086 3083 3080 3076 3072 3068 3064 3061 3058 3054 3049 3045 3041 3037 3033 3029 3025 3022 3019 3016 3013 3010 3007 3003 2999 2995 2992 2988 2985 2981 2978 2975 2972 2969 2967 2964 2962 2960 2958 2957 2955 2954 2952 2951 2949 2948 2948 2947 2947
3163 3162 3161 3159 3158 3157 3155 3153 3152 3149 3147 3145 3143 3141 3138 3135 3132 3129 3126 3123 3122 3121 3118 3116 3111 3103 3101 3103 3103 3102 3101 3100 3098 3095 3092 3090 3086 3083 3080 3077 3073 3069 3065 3062 3059 3056 3051 3047 3042 3037 3034 3030 3026 3022 3019 3016 3013 3010 3007 3004 3001 2997 2993 2990 2987 2984 2979 2976 2973 2970 2968 2965 2963 2961 2958 2956 2954 2953 2951 2949 2948 2947 2945 2945 2944 2944
3162 3160 3159 3158 3157 3155 3154 3152 3150 3148 3145 3144 3142 3140 3137 3134 3130 3127 3125 3123 3121 3120 3117 3117 3116 3106 3098 3100 3102 3100 3099 3098 3096 3093 3090 3087 3084 3081 3078 3074 3070 3067 3063 3061 3058 3053 3048 3044 3039 3035 3031 3027 3023 3020 3017 3014 3011 3007 3004 3001 2999 2995 2992 2988 2986 2982 2978 2974 2971 2968 2965 2963 2961 2959 2957 2954 2952 2951 2949 2947 2946 2945 2943 2942 2942 2941
3161 3160 3158 3157 3155 3154 3152 3151 3149 3146 3144 3143 3141 3139 3136 3132 3129 3126 3125 3123 3120 3119 3117 3115 3116 3110 3099 3097 3099 3098 3097 3096 3094 3091 3087 3084 3081 3078 3075 3071 3068 3065 3061 3059 3055 3049 3044 3040 3036 3032 3028 3024 3020 3017 3014 3011 3008 3005 3002 2999 2996 2993 2990 2987 2984 2980 2976 2973 2970 2967 2964 2961 2959 2957 2955 2953 2951 2949 2948 2946 2945 2943 2942 2941 2939 2939
3160 3158 3157 3156 3154 3153 3151 3149 3147 3145 3143 3142 3140 3137 3133 3129 3127 3125 3124 3123 3120 3118 3116 3113 3114 3111 3101 3096 3098 3096 3095 3093 3091 3088 3085 3082 3079 3076 3072 3069 3066 3063 3060 3057 3052 3046 3040 3036 3033 3028 3024 3021 3017 3014 3011 3008 3005 3002 2999 2996 2993 2991 2988 2985 2982 2978 2974 2972 2969 2966 2963 2960 2957 2955 2953 2951 2950 2948 2947 2945 2944 2943 2941 2940 2938 2937
3159 3157 3156 3155 3154 3152 3150 3148 3146 3144 3142 3140 3138 3135 3132 3128 3125 3124 3123 3122 3120 3118 3115 3112 3113 3112 3101 3094 3096 3095 3092 3091 3088 3086 3083 3080 3077 3073 3070 3067 3063 3061 3058 3054 3048 3042 3037 3033 3029 3025 3021 3017 3014 3011 3008 3005 3003 3000 2997 2994 2991 2988 2986 2983 2980 2976 2973 2970 2967 2964 2962 2959 2956 2954 2952 2950 2948 2947 2945 2944 2942 2941 2940 2939 2938 2936
3159 3157 3155 3154 3153 3151 3149 3147 3145 3143 3140 3138 3136 3133 3130 3126 3123 3123 3122 3121 3121 3117 3113 3112 3113 3113 3105 3094 3093 3093 3090 3089 3086 3083 3081 3078 3075 3071 3068 3064 3062 3059 3055 3050 3044 3039 3033 3029 3026 3022 3018 3015 3011 3008 3005 3002 3000 2997 2994 2991 2988 2986 2983 2981 2978 2974 2971 2969 2966 2963 2960 2958 2955 2953 2951 2949 2947 2945 2944 2942 2941 2940 2939 2937 2936 2935
3158 3156 3155 3153 3152 3150 3148 3146 3144 3142 3140 3137 3135 3132 3128 3125 3123 3122 3121 3121 3121 3116 3112 3112 3112 3113 3107 3095 3092 3092 3089 3087 3084 3081 3078 3075 3072 3069 3066 3063 3060 3056 3051 3046 3041 3036 3031 3027 3023 3019 3016 3012 3009 3005 3002 2999 2997 2994 2991 2988 2986 2983 2980 2978 2976 2973 2970 2967 2965 2962 2959 2956 2954 2951 2949 2948 2946 2944 2942 2941 2939 2938 2937 2935 2934 2933
3157 3155 3154 3152 3151 3149 3147 3145 3143 3141 3139 3137 3135 3132 3128 3125 3123 3122 3121 3121 3119 3115 3112 3112 3111 3109 3102 3094 3092 3091 3088 3085 3082 3078 3076 3073 3070 3067 3064 3061 3057 3052 3047 3042 3038 3033 3029 3025 3020 3016 3013 3010 3006 3002 2999 2996 2993 2990 2988 2985 2982 2980 2978 2975 2973 2970 2968 2965 2963 2960 2958 2955 2953 2950 2948 2946 2944 2943 2941 2939 2938 2936 2935 2933 2932 2931
3156 3154 3153 3151 3150 3148 3146 3144 3142 3139 3137 3136 3134 3132 3130 3130 3129 3127 3124 3121 3117 3114 3112 3112 3112 3106 3096 3092 3092 3089 3086 3083 3079 3076 3073 3070 3067 3064 3061 3058 3053 3048 3043 3039 3034 3031 3027 3022 3017 3013 3010 3006 3003 2999 2996 2992 2989 2987 2984 2982 2979 2977 2975 2972 2970 2968 2965 2963 2961 2959 2956 2953 2951 2949 2946 2945 2943 2941 2939 2937 2936 2934 2933 2931 2929 2928
3155 3153 3152 3150 3149 3147 3145 3143 3141 3139 3136 3135 3134 3134 3133 3135 3136 3133 3130 3125 3119 3115 3110 3108 3108 3102 3093 3090 3089 3086 3083 3080 3076 3073 3070 3067 3064 3061 3057 3053 3049 3044 3040 3035 3031 3028 3024 3019 3015 3010 3007 3003 3000 2996 2993 2989 2986 2983 2981 2979 2976 2973 2971 2969 2966 2965 2962 2960 2958 2956 2954 2952 2949 2947 2944 2943 2941 2939 2937 2935 2933 2931 2929 2928 2926 2925
3155 3153 3151 3150 3148 3146 3144 3142 3140 3138 3137 3135 3134 3134 3134 3134 3135 3133 3131 3127 3123 3119 3110 3103 3100 3096 3091 3087 3084 3083 3080 3076 3074 3070 3067 3064 3060 3057 3053 3049 3045 3041 3037 3033 3029 3025 3021 3017 3012 3008 3004 3000 2997 2993 2990 2986 2983 2980 2977 2975 2973 2970 2968 2965 2963 2961 2959 2957 2955 2953 2951 2949 2947 2944 2942 2940 2938 2936 2934 2932 2930 2929 2926 2925 2923 2921
3154 3152 3150 3149 3147 3145 3143 3141 3140 3138 3137 3136 3134 3134 3133 3133 3132 3131 3128 3124 3125 3123 3111 3101 3095 3090 3087 3084 3080 3079 3077 3073 3071 3067 3064 3061 3056 3053 3050 3046 3042 3038 3034 3030 3027 3023 3018 3014 3009 3005 3002 2998 2994 2990 2986 2982 2979 2976 2974 2971 2969 2967 2964 2962 2960 2958 2956 2954 2952 2950 2948 2946 2944 2942 2939 2938 2936 2934 2932 2930 2928 2926 2924 2922 2920 2918
3154 3151 3149 3148 3146 3144 3142 3140 3139 3138 3137 3136 3135 3134 3132 3131 3130 3130 3127 3123 3124 3121 3108 3100 3096 3089 3084 3081 3077 3076 3074 3071 3069 3065 3061 3058 3054 3050 3047 3043 3039 3035 3032 3028 3024 3020 3015 3010 3007 3003 3000 2996 2992 2988 2984 2979 2975 2972 2969 2967 2965 2963 2960 2958 2956 2954 2952 2950 2948 2946 2945 2943 2940 2938 2936 2934 2933 2931 2929 2927 2925 2923 2921 2918 2916 2914
3153 3149 3147 3146 3144 3142 3141 3139 3138 3137 3137 3136 3134 3134 3133 3131 3130 3129 3128 3125 3124 3121 3109 3099 3095 3088 3083 3080 3075 3074 3072 3068 3066 3063 3059 3056 3052 3048 3044 3041 3037 3033 3030 3026 3021 3017 3012 3008 3004 3000 2997 2993 2989 2985 2980 2976 2972 2969 2966 2963 2961 2959 2956 2954 2952 2950 2948 2946 2944 2942 2941 2939 2937 2935 2933 2931 2930 2928 2926 2924 2921 2920 2918 2915 2913 2911
3152 3149 3146 3144 3143 3141 3139 3138 3137 3135 3135 3134 3133 3132 3131 3131 3129 3128 3129 3127 3126 3124 3115 3103 3094 3084 3080 3078 3074 3073 3070 3067 3064 3060 3057 3054 3050 3046 3042 3039 3035 3031 3027 3022 3018 3014 3009 3006 3002 2998 2994 2990 2986 2981 2977 2973 2969 2965 2962 2959 2956 2954 2952 2949 2948 2946 2944 2942 2940 2938 2937 2935 2933 2931 2929 2928 2926 2924 2922 2920 2918 2916 2915 2912 2910 2908
3151 3149 3145 3143 3141 3140 3137 3136 3136 3134 3134 3133 3131 3131 3130 3129 3128 3126 3126 3125 3124 3124 3121 3115 3100 3081 3076 3078 3074 3072 3069 3065 3062 3058 3054 3052 3047 3044 3040 3035 3031 3027 3023 3019 3015 3011 3007 3003 2999 2995 2991 2987 2982 2978 2973 2969 2966 2962 2958 2954 2951 2949 2947 2945 2943 2941 2940 2937 2935 2934 2932 2931 2929 2927 2925 2924 2922 2921 2919 2917 2915 2913 2911 2909 2907 2905
3149 3147 3144 3141 3140 3138 3136 3135 3134 3133 3133 3131 3129 3129 3127 3127 3127 3125 3124 3121 3121 3121 3118 3119 3106 3080 3071 3076 3073 3070 3068 3063 3060 3056 3051 3049 3045 3041 3037 3032 3027 3023 3019 3015 3011 3008 3004 3000 2996 2992 2988 2983 2978 2974 2969 2965 2962 2958 2955 2951 2948 2945 2943 2940 2939 2937 2935 2933 2931 2930 2928 2926 2925 2923 2921 2920 2918 2917 2915 2914 2912 2910 2908 2906 2904 2902
3148 3146 3142 3139 3138 3137 3134 3133 3132 3131 3130 3129 3127 3126 3125 3125 3124 3124 3123 3118 3119 3118 3113 3118 3110 3080 3068 3074 3071 3068 3066 3061 3057 3053 3048 3045 3041 3037 3033 3028 3024 3019 3016 3012 3008 3005 3001 2997 2993 2988 2984 2979 2974 2970 2966 2961 2958 2954 2951 2948 2944 2941 2939 2936 2934 2932 2930 2928 2927 2925 2923 2922 2920 2919 2917 2916 2914 2913 2911 2910 2908 2906 2905 2903 2901 2899
3147 3144 3141 3137 3135 3135 3133 3132 3131 3130 3128 3127 3125 3123 3122 3121 3120 3121 3120 3117 3117 3113 3110 3116 3107 3077 3066 3072 3070 3066 3064 3058 3055 3051 3045 3041 3037 3033 3029 3025 3021 3017 3013 3010 3005 3001 2998 2993 2989 2984 2979 2975 2971 2966 2962 2958 2954 2951 2947 2944 2941 2938 2935 2932 2929 2927 2925 2924 2922 2920 2919 2917 2916 2914 2913 2911 2910 2908 2907 2906 2904 2902 2901 2900 2898 2896
3146 3144 3141 3137 3134 3132 3130 3129 3128 3127 3126 3123 3122 3120 3118 3117 3117 3117 3116 3116 3114 3107 3105 3110 3098 3074 3067 3071 3067 3064 3061 3056 3052 3049 3043 3038 3034 3030 3027 3022 3019 3015 3010 3007 3002 2998 2994 2989 2985 2980 2975 2971 2967 2963 2959 2955 2951 2947 2943 2940 2937 2934 2932 2928 2925 2923 2920 2919 2917 2916 2914 2913 2911 2910 2908 2907 2905 2904 2903 2902 2900 2899 2897 2896 2894 2892
3145 3143 3142 3140 3138 3136 3132 3129 3127 3125 3123 3121 3119 3118 3116 3114 3115 3114 3114 3114 3109 3103 3101 3099 3086 3070 3068 3069 3066 3063 3059 3052 3049 3046 3041 3037 3032 3028 3024 3020 3016 3012 3007 3003 2998 2994 2990 2986 2981 2976 2972 2967 2963 2959 2955 2952 2948 2944 2940 2937 2934 2931 2928 2925 2922 2919 2916 2914 2913 2911 2910 2908 2907 2905 2904 2902 2901 2899 2898 2897 2896 2895 2893 2892 2891 2889
3143 3141 3141 3139 3138 3136 3133 3130 3128 3125 3121 3119 3117 3117 3114 3112 3111 3111 3111 3108 3103 3099 3095 3088 3078 3068 3063 3063 3062 3059 3055 3050 3046 3042 3039 3035 3030 3026 3022 3017 3013 3009 3004 3000 2995 2991 2986 2982 2977 2972 2968 2964 2960 2956 2952 2948 2944 2940 2937 2933 2930 2927 2924 2921 2918 2915 2913 2910 2908 2907 2905 2903 2902 2900 2899 2898 2896 2895 2894 2893 2892 2891 2890 2888 2887 2885
3140 3138 3138 3137 3134 3132 3130 3127 3126 3123 3119 3116 3115 3113 3112 3110 3108 3107 3106 3101 3099 3097 3088 3080 3078 3071 3061 3060 3059 3054 3050 3047 3042 3039 3035 3031 3028 3023 3018 3014 3010 3005 3001 2996 2992 2987 2982 2977 2973 2968 2964 2960 2956 2952 2948 2944 2941 2937 2933 2930 2926 2923 2920 2917 2914 2911 2908 2906 2904 2902 2900 2898 2897 2895 2894 2893 2892 2890 2889 2888 2887 2887 2886 2885 2883 2882
3138 3135 3135 3133 3131 3129 3128 3125 3122 3120 3117 3113 3111 3110 3109 3107 3103 3101 3100 3097 3096 3093 3082 3076 3077 3071 3061 3059 3057 3052 3048 3043 3038 3036 3032 3028 3025 3020 3015 3011 3006 3002 2997 2993 2988 2983 2978 2973 2969 2965 2961 2957 2952 2949 2945 2941 2937 2934 2930 2926 2922 2919 2916 2913 2910 2907 2904 2901 2899 2897 2895 2893 2892 2891 2890 2888 2887 2886 2885 2884 2883 2882 2882 2881 2880 2878
3136 3133 3132 3130 3127 3125 3124 3122 3119 3116 3113 3110 3107 3107 3106 3104 3100 3098 3096 3094 3092 3087 3079 3074 3072 3067 3062 3059 3054 3050 3047 3041 3036 3033 3029 3025 3022 3016 3011 3007 3002 2998 2994 2989 2984 2980 2974 2970 2965 2961 2957 2953 2949 2945 2941 2937 2934 2930 2927 2923 2919 2916 2912 2909 2906 2903 2900 2897 2895 2893 2890 2889 2887 2886 2885 2883 2882 2882 2881 2880 2879 2878 2878 2877 2876 2875
3134 3131 3129 3127 3123 3120 3120 3119 3116 3113 3110 3106 3104 3105 3103 3101 3098 3095 3094 3092 3088 3082 3077 3074 3068 3061 3059 3057 3051 3047 3044 3039 3033 3029 3025 3022 3018 3013 3008 3003 2999 2995 2990 2986 2981 2975 2971 2966 2962 2958 2953 2949 2945 2941 2937 2933 2929 2926 2923 2919 2916 2912 2909 2906 2902 2900 2897 2894 2891 2889 2887 2885 2883 2881 2880 2879 2878 2877 2876 2875 2875 2874 2874 2873 2872 2871
3132 3129 3126 3125 3121 3116 3116 3115 3112 3111 3108 3104 3102 3102 3101 3099 3097 3094 3091 3090 3086 3080 3075 3072 3066 3058 3055 3052 3048 3044 3041 3037 3031 3026 3021 3018 3014 3009 3004 2999 2995 2991 2986 2982 2977 2972 2967 2963 2958 2954 2949 2945 2941 2937 2933 2928 2925 2921 2918 2915 2912 2909 2905 2902 2899 2896 2894 2891 2888 2885 2883 2881 2879 2877 2876 2875 2873 2873 2872 2871 2870 2870 2869 2869 2868 2867
3129 3126 3124 3124 3119 3113 3113 3113 3109 3107 3105 3101 3100 3100 3098 3097 3096 3092 3089 3086 3083 3079 3074 3069 3064 3058 3054 3050 3044 3040 3037 3033 3028 3023 3019 3015 3010 3005 3001 2996 2991 2986 2982 2977 2972 2968 2963 2958 2954 2950 2945 2941 2936 2932 2928 2924 2920 2917 2913 2911 2908 2905 2902 2899 2896 2893 2890 2887 2884 2882 2879 2877 2875 2873 2872 2870 2869 2868 2867 2867 2866 2865 2865 2865 2864 2863
3127 3124 3123 3122 3118 3112 3110 3110 3107 3104 3102 3099 3098 3098 3096 3095 3093 3090 3086 3083 3079 3076 3072 3067 3062 3057 3053 3048 3042 3036 3031 3028 3024 3019 3016 3012 3007 3001 2996 2992 2987 2982 2977 2972 2968 2963 2959 2954 2950 2945 2941 2936 2932 2928 2924 2919 2915 2912 2908 2906 2903 2901 2898 2895 2892 2889 2887 2884 2881 2878 2876 2874 2871 2870 2868 2866 2865 2864 2863 2862 2862 2861 2861 2860 2860 2859
3124 3123 3121 3120 3117 3111 3109 3109 3107 3102 3099 3097 3097 3096 3094 3092 3090 3087 3084 3081 3078 3073 3068 3064 3059 3054 3050 3045 3039 3032 3025 3020 3016 3012 3010 3008 3003 2996 2990 2986 2982 2977 2972 2967 2963 2958 2954 2949 2945 2940 2936 2932 2927 2923 2919 2915 2911 2907 2904 2901 2898 2896 2893 2891 2888 2886 2883 2880 2877 2875 2872 2870 2868 2866 2864 2862 2861 2860 2859 2858 2857 2857 2856 2856 2856 2855
3123 3121 3120 3118 3116 3112 3110 3110 3107 3099 3094 3095 3095 3093 3091 3089 3085 3082 3078 3076 3075 3071 3066 3061 3055 3050 3045 3039 3034 3028 3020 3012 3006 3003 3003 3002 2997 2991 2985 2980 2977 2972 2967 2962 2957 2953 2948 2944 2939 2935 2931 2927 2922 2918 2914 2910 2907 2903 2899 2896 2893 2891 2889 2886 2884 2882 2879 2876 2874 2871 2869 2867 2865 2863 2861 2859 2857 2856 2854 2854 2853 2852 2852 2851 2851 2850
3121 3120 3119 3117 3115 3113 3110 3108 3104 3096 3092 3093 3092 3090 3089 3085 3082 3077 3071 3069 3070 3068 3064 3057 3050 3044 3039 3033 3027 3022 3014 3004 2995 2993 2997 2995 2989 2985 2980 2975 2971 2966 2962 2957 2952 2947 2943 2938 2934 2930 2925 2921 2917 2913 2909 2906 2902 2898 2895 2891 2889 2887 2884 2882 2880 2877 2875 2873 2870 2868 2865 2863 2861 2859 2857 2855 2853 2852 2850 2849 2849 2848 2847 2847 2847 2846
3120 3118 3118 3116 3114 3112 3110 3106 3102 3096 3092 3091 3089 3088 3086 3082 3079 3075 3067 3064 3065 3064 3059 3053 3045 3039 3033 3027 3021 3015 3009 2998 2987 2985 2989 2987 2982 2978 2974 2969 2965 2961 2956 2952 2947 2942 2938 2933 2928 2925 2920 2916 2912 2908 2904 2901 2897 2894 2890 2887 2884 2882 2880 2878 2875 2873 2871 2869 2866 2864 2861 2859 2857 2855 2853 2851 2850 2848 2846 2845 2844 2844 2843 2843 2842 2842
3118 3117 3116 3115 3112 3110 3109 3107 3103 3097 3090 3089 3088 3086 3083 3079 3076 3071 3064 3059 3059 3059 3054 3047 3041 3035 3028 3022 3016 3010 3004 2995 2984 2979 2982 2981 2975 2972 2967 2963 2959 2955 2950 2946 2941 2937 2932 2927 2923 2919 2915 2911 2907 2903 2899 2896 2893 2889 2886 2883 2880 2878 2875 2873 2871 2869 2867 2864 2862 2860 2858 2856 2854 2852 2849 2847 2846 2844 2843 2841 2840 2839 2839 2839 2838 2838
3117 3115 3114 3112 3109 3108 3107 3105 3101 3095 3090 3089 3088 3085 3081 3077 3074 3070 3062 3054 3051 3051 3049 3043 3036 3031 3025 3019 3013 3007 3001 2995 2984 2977 2977 2975 2970 2966 2961 2957 2952 2948 2943 2939 2935 2931 2926 2922 2917 2914 2910 2906 2902 2898 2894 2891 2888 2885 2882 2879 2876 2873 2871 2869 2867 2865 2863 2860 2858 2856 2854 2852 2850 2848 2846 2844 2842 2841 2839 2838 2836 2835 2835 2835 2834 2834
3115 3113 3111 3109 3107 3105 3104 3101 3096 3092 3090 3089 3087 3084 3080 3075 3071 3069 3064 3055 3048 3044 3043 3039 3033 3027 3022 3015 3009 3003 2998 2993 2986 2978 2974 2970 2965 2960 2956 2951 2946 2942 2937 2933 2928 2924 2920 2915 2911 2908 2904 2901 2896 2893 2890 2886 2883 2881 2877 2874 2872 2869 2867 2865 2863 2861 2859 2856 2855 2853 2851 2849 2847 2845 2843 2840 2838 2837 2835 2834 2833 2831 2831 2831 2830 2830
3114 3111 3109 3107 3105 3103 3101 3098 3094 3090 3088 3088 3085 3082 3079 3074 3070 3066 3060 3055 3049 3042 3037 3033 3028 3023 3017 3011 3005 3000 2993 2988 2983 2976 2970 2966 2960 2955 2950 2946 2941 2936 2932 2926 2922 2917 2913 2909 2905 2901 2898 2894 2890 2888 2885 2881 2879 2876 2873 2870 2867 2865 2863 2861 2859 2857 2855 2853 2851 2849 2847 2846 2844 2841 2839 2837 2835 2833 2832 2830 2829 2828 2827 2827 2826 2826
3113 3110 3108 3106 3104 3101 3099 3097 3094 3089 3086 3085 3082 3079 3077 3073 3069 3062 3053 3048 3046 3041 3033 3027 3023 3019 3013 3006 2999 2994 2988 2982 2977 2971 2965 2960 2955 2950 2945 2939 2934 2930 2925 2920 2915 2911 2906 2901 2898 2895 2891 2887 2884 2882 2879 2876 2874 2871 2868 2865 2862 2860 2858 2856 2854 2853 2851 2849 2847 2845 2844 2842 2840 2838 2836 2834 2832 2830 2828 2827 2826 2824 2823 2823 2823 2822
3111 3109 3107 3105 3104 3101 3098 3097 3095 3091 3087 3085 3081 3078 3076 3072 3066 3059 3050 3043 3039 3036 3029 3022 3017 3013 3008 3001 2993 2987 2981 2975 2970 2964 2959 2954 2949 2944 2939 2933 2928 2923 2918 2914 2909 2904 2899 2894 2891 2888 2884 2881 2878 2876 2874 2871 2868 2867 2864 2861 2857 2855 2853 2852 2850 2849 2847 2845 2843 2842 2840 2838 2837 2835 2833 2831 2829 2827 2825 2824 2822 2821 2820 2819 2819 2819
3110 3108 3106 3104 3103 3101 3097 3094 3092 3089 3086 3084 3081 3076 3072 3067 3062 3057 3049 3041 3035 3031 3026 3018 3012 3007 3002 2996 2988 2981 2976 2970 2964 2959 2954 2949 2944 2939 2934 2928 2923 2917 2912 2908 2903 2898 2893 2888 2885 2881 2878 2875 2872 2870 2868 2865 2863 2862 2859 2856 2852 2851 2849 2847 2845 2844 2843 2841 2840 2838 2836 2835 2833 2831 2830 2828 2826 2824 2823 2821 2819 2818 2816 2816 2815 2815
3107 3105 3103 3101 3099 3096 3094 3092 3089 3086 3083 3082 3079 3073 3067 3062 3057 3052 3046 3039 3032 3027 3022 3016 3009 3003 2998 2992 2984 2977 2972 2967 2961 2955 2950 2945 2940 2935 2929 2923 2918 2912 2907 2902 2897 2892 2887 2883 2879 2875 2871 2868 2866 2864 2861 2859 2858 2856 2854 2850 2848 2846 2844 2842 2841 2840 2839 2837 2836 2834 2833 2831 2829 2828 2826 2825 2823 2821 2820 2818 2816 2815 2813 2812 2812 2811
3104 3103 3100 3098 3096 3092 3089 3088 3086 3082 3079 3077 3072 3067 3062 3057 3052 3047 3041 3034 3028 3022 3017 3012 3006 3000 2994 2989 2982 2974 2969 2964 2958 2951 2945 2940 2935 2929 2924 2918 2913 2908 2902 2897 2892 2886 2882 2877 2873 2869 2865 2862 2860 2857 2855 2853 2852 2851 2848 2845 2843 2842 2839 2838 2837 2835 2834 2833 2832 2830 2829 2827 2826 2824 2823 2822 2820 2819 2817 2815 2814 2812 2810 2809 2808 2808
3102 3100 3097 3095 3093 3090 3086 3083 3080 3076 3076 3073 3067 3060 3055 3049 3044 3040 3035 3029 3023 3018 3012 3008 3002 2996 2990 2985 2979 2971 2965 2960 2953 2946 2939 2934 2929 2923 2918 2912 2907 2902 2898 2893 2887 2882 2877 2872 2867 2863 2859 2856 2853 2851 2848 2847 2846 2845 2843 2841 2839 2837 2835 2834 2832 2831 2830 2829 2828 2826 2825 2824 2822 2821 2819 2818 2817 2816 2814 2813 2811 2810 2807 2806 2805 2804
3099 3097 3094 3091 3088 3085 3082 3078 3071 3065 3064 3064 3061 3055 3049 3042 3036 3032 3029 3024 3018 3012 3006 3001 2997 2993 2987 2981 2975 2967 2960 2954 2948 2941 2934 2929 2924 2918 2913 2907 2902 2898 2893 2887 2882 2877 2872 2866 2862 2857 2853 2849 2847 2843 2841 2841 2840 2839 2837 2836 2834 2832 2831 2829 2828 2826 2825 2825 2824 2822 2821 2820 2819 2817 2816 2815 2814 2813 2811 2810 2808 2807 2805 2804 2802 2802
3096 3094 3091 3086 3082 3079 3077 3073 3067 3059 3054 3053 3052 3047 3043 3038 3031 3026 3022 3017 3012 3007 3001 2996 2992 2988 2983 2977 2970 2962 2954 2949 2944 2937 2931 2925 2920 2914 2908 2903 2897 2892 2888 2882 2877 2872 2866 2861 2856 2852 2847 2844 2840 2837 2834 2834 2834 2833 2832 2831 2830 2828 2826 2825 2823 2822 2821 2821 2820 2819 2818 2817 2815 2814 2813 2811 2810 2810 2809 2807 2806 2804 2803 2801 2800 2799
3095 3092 3089 3085 3080 3077 3074 3071 3067 3061 3054 3050 3047 3043 3039 3034 3027 3022 3018 3013 3008 3003 2999 2992 2986 2980 2974 2970 2965 2959 2951 2945 2939 2933 2927 2922 2917 2911 2905 2899 2893 2887 2882 2877 2871 2866 2861 2856 2851 2846 2842 2838 2834 2831 2829 2828 2827 2827 2826 2826 2825 2823 2822 2820 2819 2818 2817 2817 2816 2815 2814 2813 2812 2811 2810 2808 2807 2806 2806 2805 2804 2802 2800 2799 2798 2797